www.pogodaiklimat.ru

Погода и климат >> Архив погоды >> Норвегия >> Эйк-Хоув


ПОГОДА в Эйк-Хоуве

  • Прогноз погоды в Эйк-Хоуве
  • Монитор погоды в Эйк-Хоуве

АРХИВ ПОГОДЫ в Эйк-Хоуве

Время (UTC), дата Ветер
(напр.,м/с)
 
Видим.   Явления Облачность Т
(С)
Тd
(С)
f
(%)
Тe
(С)
Тes
(С)
Комфортность P
(гПа)
Po
(гПа)
Тmin
(С)
Tmax
(С)
R
(мм)
R24
(мм)
S
(см)
07 15.08 Ю 1
{2}
н/о н/о +11.3 +10.2 93 +11 +11 1006.5 998.6
08 15.08 В 1
{2}
н/о н/о +13.2 +10.6 84 +13 +13 1006.1 998.2
09 15.08 ЮЗ 3
{4}
н/о н/о +14.5 +9.7 73 +14 +14 1005.4 997.6
10 15.08 Ю 2
{5}
н/о н/о +14.6 +10.4 76 +14 +14 1005.0 997.2
11 15.08 СВ 3
{7}
н/о н/о +14.8 +11.0 78 +14 +14 1004.8 997.0
12 15.08 С 2
{7}
>70 км 10/10 600 м
[Sc]
+15.0 +11.0 77 +15 +15 1004.7 996.9
13 15.08 ЮЗ 2
{7}
н/о н/о +15.5 +11.5 77 +15 +15 1004.4 996.6
14 15.08 З 2
{4}
н/о н/о +14.4 +12.3 87 +14 +14 1004.2 996.4 1
15 15.08 ЮЗ 4
{7}
н/о н/о +14.8 +12.7 87 +14 +14 1003.9 996.1 0.8
16 15.08 ЮЗ 4
{6}
н/о н/о +15.3 +13.2 87 +14 +14 1003.8 996.0 0.1
17 15.08 ЮЗ 3
{7}
н/о н/о +15.2 +13.2 88 +14 +14 1003.9 996.1 0.6
18 15.08 ЮЗ 3
{7}
15 км слаб. дождь 10/9 100 м
[Frnb As op]
+14.8 +13.3 91 +14 +14 1003.8 996.0 +9.1 +15.5 4
19 15.08 Ю 2
{5}
н/о н/о +14.8 +13.8 94 +14 +14 1004.1 996.3 0.2
20 15.08 Ю 2
{4}
н/о н/о +14.8 +14.2 96 +14 +14 1004.2 996.4 0.3
21 15.08 С 1
{4}
н/о н/о +14.5 +14.0 97 +15 +15 1004.7 996.9 0.3
22 15.08 С 1
{1}
н/о н/о +14.4 +14.1 98 +15 +15 1004.8 997.0 0.1
23 15.08 ЮВ 1
{2}
н/о н/о +14.5 +14.3 99 +15 +15 1005.3 997.5 0.1
00 16.08 С 1
{5}
н/о н/о +14.3 +14.1 99 +15 +15 1005.7 997.9 0.2
01 16.08 В 1
{3}
н/о н/о +14.3 +14.1 99 +15 +15 1005.9 998.1 0.2
02 16.08 С 3
{6}
н/о н/о +14.6 +13.2 91 +14 +14 1006.4 998.6
03 16.08 З 3
{6}
н/о н/о +13.9 +11.6 86 +13 +13 1006.9 999.0
04 16.08 З 3
{8}
н/о н/о +13.7 +11.1 84 +13 +13 1007.5 999.6
05 16.08 З 1
{5}
н/о н/о +12.8 +11.5 92 +13 +13 1007.8 999.9
06 16.08 З 4
{8}
>70 км {дождь} 9/8 600 м
[Sc Ci sp]
+13.5 +10.1 80 +12 +12 1008.5 1000.6 +12.8 +14.9 1
07 16.08 СЗ 3
{6}
н/о н/о +14.2 +9.4 73 +13 +13 1008.8 1000.9
08 16.08 СЗ 2
{6}
н/о н/о +14.4 +8.4 67 +14 +14 1009.2 1001.3
09 16.08 С 5
{9}
н/о н/о +14.7 +8.0 64 +13 +13 1009.5 1001.6
10 16.08 С 3
{9}
н/о н/о +16.4 +9.8 65 +16 +16 1009.1 1001.3
11 16.08 В 2
{7}
н/о н/о +16.9 +10.1 64 +17 +17 1009.1 1001.3
12 16.08 Ю 3
{9}
>70 км 9/1 600 м
[Cu hum Cs]
+16.8 +9.5 62 +17 +23 1008.8 1001.0
13 16.08 Ю 3
{6}
н/о н/о +17.6 +9.3 58 +18 +18 1008.6 1000.8
14 16.08 Ю 3
{6}
н/о н/о +17.0 +8.4 57 +17 +17 1008.6 1000.8
15 16.08 Ю 4
{6}
н/о н/о +16.1 +8.8 62 +15 +15 1008.5 1000.7
16 16.08 Ю 3
{6}
н/о н/о +15.8 +10.8 72 +15 +15 1008.2 1000.4
17 16.08 Ю 3
{5}
н/о н/о +15.4 +11.8 79 +15 +15 1007.2 999.4
18 16.08 Ю 2
{6}
30 км слаб. дождь 10/10 300 м
[Sc]
+15.0 +12.9 87 +15 +15 1006.9 999.1 +13.5 +18.0
19 16.08 Ю 3
{6}
н/о н/о +15.3 +12.4 83 +15 +15 1006.4 998.6
20 16.08 Ю 3
{7}
н/о н/о +15.3 +13.0 86 +15 +15 1006.0 998.2 0.1
21 16.08 Ю 2
{6}
н/о н/о +15.0 +12.3 84 +15 +15 1005.5 997.7
22 16.08 Ю 3
{5}
н/о н/о +14.2 +13.3 94 +13 +13 1004.8 997.0 0.5
23 16.08 Ю 2
{7}
н/о н/о +14.4 +13.0 91 +14 +14 1003.8 996.0 0.1
00 17.08 Ю 3
{7}
н/о н/о +14.4 +12.6 89 +13 +13 1002.6 994.8 0.5
01 17.08 Ю 4
{7}
н/о н/о +14.4 +12.4 88 +13 +13 1001.2 993.4 2
02 17.08 Ю 4
{8}
н/о н/о +13.9 +13.1 95 +12 +12 999.6 991.8 4
03 17.08 Ю 4
{8}
н/о н/о +14.3 +13.7 96 +13 +13 998.5 990.7 5
04 17.08 Ю 3
{8}
н/о н/о +14.9 +14.6 98 +14 +14 997.4 989.6 4
05 17.08 Ю 4
{8}
н/о н/о +15.2 +14.9 98 +14 +14 996.5 988.8 5
06 17.08 Ю 3
{8}
4000 м слаб. дождь 10/9 50 м
[Frnb As op]
+15.1 +14.6 97 +14 +14 995.7 988.0 +13.8 +15.5 23
07 17.08 Ю 3
{7}
н/о н/о +15.5 +15.2 98 +15 +15 995.3 987.6 4
08 17.08 Ю 3
{6}
н/о н/о +16.2 +15.9 98 +16 +16 995.4 987.7 1
09 17.08 Ю 3
{8}
н/о н/о +16.3 +15.5 95 +16 +16 995.8 988.1 0.7
10 17.08 Ю 3
{10}
н/о н/о +16.9 +15.8 93 +17 +17 996.2 988.5 0.9
11 17.08 Ю 2
{7}
н/о н/о +17.2 +15.2 88 +18 +18 996.7 989.0 0.4
12 17.08 Ю 2
{10}
50 км осадки на расстоянии {ливн. осадки} 9/9 300 м
[Cb cap]
+17.5 +14.6 83 +18 +19 997.0 989.3 8
13 17.08 Ю 3
{7}
н/о н/о +18.4 +14.7 79 +19 +19 997.1 989.4 0.2
14 17.08 Ю 3
{7}
н/о н/о +17.7 +13.6 77 +18 +18 997.6 989.9 0.1
15 17.08 Ю 3
{6}
н/о н/о +17.4 +13.9 80 +17 +17 997.6 989.9
16 17.08 Ю 3
{7}
н/о н/о +16.1 +14.3 89 +16 +16 997.8 990.1 2
17 17.08 Ю 2
{7}
н/о н/о +15.9 +13.9 88 +16 +16 998.2 990.5 0.1
18 17.08 Ю 2
{7}
40 км слаб. ливневой дождь 9/9 600 м
[Cb cap]
+14.9 +13.9 94 +15 +15 998.6 990.8 +14.9 +18.5 13
19 17.08 Ю 2
{6}
н/о н/о +14.5 +11.8 84 +14 +14 999.8 992.0 0.1
20 17.08 СЗ 1
{3}
н/о н/о +12.8 +12.0 95 +13 +13 1000.3 992.5 0.1
21 17.08 С 1
{3}
н/о н/о +11.5 +11.0 97 +11 +11 1000.9 993.0
22 17.08 СЗ 1
{2}
н/о н/о +11.4 +11.3 99 +11 +11 1001.3 993.4
23 17.08 С 1
{2}
н/о н/о +10.2 +10.1 99 +10 +10 1001.6 993.7
00 18.08 С 1
{6}
н/о н/о +10.8 +10.8 100 +10 +10 1001.8 993.9 0.1
01 18.08 С 1
{2}
н/о н/о +11.1 +11.1 100 +11 +11 1001.7 993.8
02 18.08 С 1
{2}
н/о н/о +11.3 +11.3 100 +11 +11 1001.5 993.6 0.7
03 18.08 штиль 0
{3}
н/о н/о +11.6 +11.6 100 +11 +11 1001.4 993.5 0.3
04 18.08 С 2
{2}
н/о н/о +11.3 +11.3 100 +10 +10 1001.2 993.3 0.1
05 18.08 С 1
{2}
н/о н/о +11.6 +11.6 100 +11 +11 1001.3 993.4
06 18.08 С 1
{3}
40 км {ливн. осадки} 6/6 50 м
[Cu med, cong Ci fib]
+12.2 +12.2 100 +12 +13 1001.1 993.2 +9.9 +15.1 1
07 18.08 СВ 2
{3}
н/о н/о +12.9 +12.9 100 +12 +12 1000.9 993.1
08 18.08 Ю 3
{8}
н/о н/о +15.4 +13.6 89 +15 +15 1000.7 992.9
09 18.08 Ю 4
{8}
н/о н/о +17.1 +13.2 78 +17 +17 1000.3 992.6
10 18.08 Ю 3
{9}
н/о н/о +16.3 +12.7 79 +16 +16 1000.0 992.3
11 18.08 Ю 4
{9}
н/о н/о +16.9 +12.5 75 +16 +16 999.3 991.6 0.1
12 18.08 Ю 3
{9}
50 км в посл. час ливневой дождь 9/9 600 м
[Cb cap]
+16.3 +13.8 85 +16 +17 999.5 991.8 3
13 18.08 Ю 4
{8}
н/о н/о +17.2 +13.5 79 +17 +17 999.3 991.6 0.1
14 18.08 С 3
{13}
н/о н/о +14.7 +9.1 69 +14 +14 999.3 991.5 0.1
15 18.08 С 2
{4}
н/о н/о +12.3 +11.5 95 +11 +11 999.6 991.8 6
16 18.08 З 1
{5}
н/о н/о +14.1 +12.3 89 +14 +14 999.3 991.5 9
17 18.08 ЮЗ 2
{5}
н/о н/о +13.3 +12.2 93 +13 +13 999.1 991.3 0.6
18 18.08 З 1
{13}
>70 км {гроза, ливн. осадки} 9/3 200 м
[Cu med, cong Ac trans Ci sp]
+13.5 +12.6 94 +14 +14 999.4 991.6 +11.9 +17.3 20
19 18.08 С 1
{2}
н/о н/о +13.3 +12.8 97 +13 +13 999.5 991.7
20 18.08 С 2
{3}
н/о н/о +12.9 +12.6 98 +12 +12 999.6 991.8 3
21 18.08 СЗ 1
{2}
н/о н/о +12.3 +12.2 99 +12 +12 999.9 992.1 0.2
22 18.08
{2}
н/о н/о +11.7 +11.6 99 1000.2 992.3
23 18.08
{2}
н/о н/о +12.4 +12.4 100 999.7 991.9 1
00 19.08 СЗ 1
{3}
н/о н/о +12.9 +12.9 100 +13 +13 999.8 992.0 0.1
01 19.08 З 1
{3}
н/о н/о +13.5 +13.4 99 +14 +14 999.4 991.6 0.4
02 19.08 Ю 3
{7}
н/о н/о +15.0 +13.2 89 +14 +14 999.0 991.2
03 19.08 ЮЗ 1
{7}
н/о н/о +13.2 +11.6 90 +13 +13 999.5 991.7 2
04 19.08 СЗ 1
{3}
н/о н/о +13.0 +12.5 97 +13 +13 999.7 991.9 1
05 19.08 ЮЗ 1
{5}
н/о н/о +13.5 +12.4 93 +14 +14 999.9 992.1 0.1
06 19.08 Ю 2
{7}
50 км слаб. ливневой дождь 9/9 600 м
[Cb cap Ac trans Ci sp]
+13.9 +12.3 90 +13 +13 1000.4 992.6 +11.4 +15.1 8
07 19.08 Ю 3
{6}
н/о н/о +14.3 +12.5 89 +13 +13 1001.0 993.2 0.4
08 19.08 Ю 3
{7}
н/о н/о +14.9 +12.6 86 +14 +14 1001.5 993.7 1
09 19.08 ЮВ 3
{6}
н/о н/о +15.4 +12.5 83 +15 +15 1002.0 994.2 0.2
10 19.08 Ю 3
{8}
н/о н/о +15.6 +12.9 84 +15 +15 1002.6 994.8
11 19.08 СЗ 1
{9}
н/о н/о +15.4 +12.5 83 +16 +16 1003.5 995.7
12 19.08 Ю 4
{9}
50 км слаб. ливневой дождь 9/9 300 м
[Cb cap]
+16.7 +11.8 73 +16 +17 1004.2 996.4 2
13 19.08 Ю 4
{9}
н/о н/о +17.2 +11.5 69 +17 +17 1004.9 997.1
14 19.08 Ю 3
{10}
н/о н/о +16.2 +12.8 80 +16 +16 1005.8 998.0 0.2
15 19.08 Ю 2
{7}
н/о н/о +15.9 +12.7 81 +16 +16 1006.1 998.3 0.1
16 19.08 Ю 2
{5}
н/о н/о +16.2 +11.8 75 +16 +16 1006.5 998.7
17 19.08 Ю 2
{6}
н/о н/о +15.9 +12.3 79 +16 +16 1006.7 998.9
18 19.08 ЮЗ 1
{10}
50 км слаб. ливневой дождь 9/9 600 м
[Cb cap Ci fib]
+14.5 +12.5 88 +15 +15 1007.1 999.3 +13.8 +17.9 3
19 19.08 штиль 0
{4}
н/о н/о +13.4 +12.1 92 +13 +13 1007.8 999.9
20 19.08 С 1
{2}
н/о н/о +12.8 +12.3 97 +13 +13 1008.4 1000.5
21 19.08 С 1
{2}
н/о н/о +12.2 +12.1 99 +12 +12 1008.8 1000.9
22 19.08 С 1
{2}
н/о н/о +11.7 +11.6 99 +11 +11 1009.0 1001.1
23 19.08 штиль 0
{2}
н/о н/о +12.3 +12.3 100 +12 +12 1009.3 1001.4
00 20.08 Ю 1
{4}
н/о н/о +12.7 +12.7 100 +13 +13 1009.5 1001.6
01 20.08 С 1
{2}
н/о н/о +12.7 +12.7 100 +13 +13 1009.8 1001.9
02 20.08 СЗ 1
{2}
н/о н/о +12.3 +12.3 100 +12 +12 1010.2 1002.3
03 20.08 С 1
{2}
н/о н/о +12.2 +12.2 100 +12 +12 1010.4 1002.5
04 20.08 З 3
{7}
н/о н/о +12.7 +12.6 99 +11 +11 1010.6 1002.7
05 20.08 С 1
{4}
н/о н/о +11.9 +11.4 97 +12 +12 1010.9 1003.0
06 20.08 штиль 0
{7}
40 км слаб. ливневой дождь 9/9 100 м
[Cb cap]
+12.5 +12.3 99 +12 +12 1011.2 1003.3 +11.5 +14.6
07 20.08 Ю 2
{6}
н/о н/о +13.4 +12.1 92 +13 +13 1011.7 1003.8
08 20.08 Ю 2
{5}
н/о н/о +15.3 +13.7 90 +15 +15 1012.0 1004.1
09 20.08 ЮЗ 2
{5}
н/о н/о +14.4 +12.4 88 +14 +14 1012.6 1004.7
10 20.08 ЮВ 2
{4}
н/о н/о +15.8 +12.7 82 +16 +16 1013.1 1005.2
11 20.08 ЮВ 2
{5}
н/о н/о +15.9 +12.7 81 +16 +16 1013.5 1005.6
12 20.08 Ю 3
{6}
50 км слаб. ливневой дождь 9/9 600 м
[Cb cap]
+15.1 +12.2 83 +14 +15 1014.3 1006.4
13 20.08 Ю 3
{6}
н/о н/о +16.4 +12.2 76 +16 +16 1015.0 1007.1
14 20.08 Ю 2
{6}
н/о н/о +16.0 +10.5 70 +16 +16 1015.6 1007.7
15 20.08 Ю 2
{5}
н/о н/о +16.9 +10.5 66 +17 +17 1015.7 1007.9
16 20.08 Ю 2
{5}
н/о н/о +15.2 +9.8 70 +15 +15 1016.3 1008.4
17 20.08 Ю 1
{4}
н/о н/о +14.7 +9.5 71 +15 +15 1016.7 1008.8
18 20.08 В 1
{6}
40 км слаб. ливневой дождь 9/9 300 м
[Cb cap]
+12.9 +10.1 83 +13 +13 1017.6 1009.6 +12.5 +16.9
19 20.08 З 1
{3}
н/о н/о +12.2 +10.8 91 +12 +12 1018.4 1010.4
20 20.08 СЗ 1
{3}
н/о н/о +11.4 +10.2 92 +11 +11 1018.8 1010.8
21 20.08 СЗ 1
{3}
н/о н/о +10.4 +9.6 95 +10 +10 1019.5 1011.4
22 20.08 С 1
{3}
н/о н/о +8.7 +8.1 96 +8 +8 1019.9 1011.8
23 20.08
{4}
н/о н/о +8.4 +8.1 98 1020.1 1012.0
00 21.08 С 2
{4}
н/о н/о +9.4 +9.4 100 +8 +8 1020.3 1012.2
01 21.08 С 1
{3}
н/о н/о +9.4 +9.3 99 +9 +9 1020.5 1012.4
02 21.08 С 1
{3}
н/о н/о +10.3 +10.3 100 +10 +10 1021.0 1012.9
03 21.08
{5}
н/о н/о +11.1 +10.5 96 1021.3 1013.2
04 21.08 С 1
{4}
н/о н/о +10.7 +9.9 95 +10 +10 1021.8 1013.7
05 21.08 СЗ 1
{2}
н/о н/о +11.0 +10.4 96 +11 +11 1022.3 1014.2
06 21.08 штиль 0
{5}
>70 км 9/9 600 м
[Cu Sc]
+11.4 +10.6 95 +11 +11 1022.6 1014.6 +8.1 +12.9
07 21.08 С 1
{2}
н/о н/о +13.1 +9.2 77 +13 +13 1022.8 1014.8
08 21.08 В 1
{2}
н/о н/о +14.4 +9.6 73 +15 +15 1023.1 1015.1
09 21.08 В 1
{3}
н/о н/о +15.2 +8.7 65 +16 +16 1023.1 1015.2
10 21.08 З 2
{4}
н/о н/о +15.4 +8.2 62 +15 +15 1023.2 1015.3
11 21.08 С 3
{6}
н/о н/о +14.8 +7.1 60 +14 +14 1023.6 1015.6
12 21.08 Ю 2
{6}
>70 км 9/9 600 м
[Cu med, cong]
+17.6 +8.7 56 +18 +19 1023.5 1015.6
13 21.08 ЮВ 1
{8}
н/о н/о +15.9 +7.2 56 +17 +17 1023.6 1015.7
14 21.08 Ю 2
{8}
н/о н/о +16.4 +7.1 54 +17 +17 1023.6 1015.7
15 21.08 Ю 3
{7}
н/о н/о +16.3 +8.3 59 +16 +16 1023.6 1015.7
16 21.08 Ю 2
{5}
н/о н/о +16.2 +7.7 57 +16 +16 1023.5 1015.6
17 21.08 Ю 1
{5}
н/о н/о +14.9 +9.7 71 +15 +15 1023.4 1015.4
18 21.08 З 1
{8}
>70 км 9/8 600 м
[Cu Sc Ac As]
+13.9 +9.9 77 +14 +14 1023.1 1015.1 +11.4 +17.7
19 21.08 СЗ 1
{1}
н/о н/о +12.9 +11.1 89 +13 +13 1023.0 1015.0
20 21.08 С 1
{3}
н/о н/о +12.3 +9.9 85 +12 +12 1023.1 1015.1
21 21.08 З 1
{2}
н/о н/о +12.0 +10.9 93 +12 +12 1023.1 1015.1 0.1
22 21.08 С 1
{1}
н/о н/о +11.9 +11.1 95 +12 +12 1022.5 1014.5
23 21.08 С 1
{2}
н/о н/о +11.8 +11.3 97 +12 +12 1022.0 1014.0
00 22.08 С 1
{3}
н/о н/о +12.1 +11.6 97 +12 +12 1021.5 1013.5 0.5
01 22.08 С 2
{2}
н/о н/о +12.1 +11.8 98 +11 +11 1021.0 1013.0 0.6
02 22.08 С 2
{2}
н/о н/о +12.2 +11.9 98 +11 +11 1020.7 1012.7 0.2
03 22.08 штиль 0
{2}
н/о н/о +12.4 +12.3 99 +12 +12 1019.9 1011.9 0.2
04 22.08 СЗ 1
{2}
н/о н/о +12.7 +12.7 100 +13 +13 1019.0 1011.0 0.9
05 22.08 С 1
{4}
н/о н/о +13.6 +13.5 99 +14 +14 1018.7 1010.7 8
06 22.08 Ю 3
{7}
15 км дождь 10/9 100 м
[Frnb As op]
+14.2 +13.7 97 +13 +13 1018.0 1010.1 +11.5 +14.3 12
07 22.08 Ю 3
{7}
н/о н/о +14.5 +13.2 92 +14 +14 1017.6 1009.7 3

 

Местоположение метеостанции Эйк-Хоув (Норвегия): широта 58.51 долгота 6.51 высота над уровнем моря 65 м.

В архиве по умолчанию представлена погода в Эйк-Хоуве за последнюю неделю. Архивные данные за месяц целиком и за предыдущие месяцы, начиная с января 2011 года, Вы можете получить, выбрав интересующий диапазон дат из раскрывающегося списка и нажав кнопку "Ввод!".


*Определитесь, кто Вы:
робот инопланетянин человек

Внимание! Время в таблицах - всемирное. Для получения местного времени необходимо прибавить поправку, которая равна 1 ч.

Смотрите также архив погоды в соседних городах и на ближайших метеорологических станциях:

Погода в Айгеройе (Норвегия) (38 км)
Погода на Маяке Lista (Норвегия) (45 км)
Погода в Сирдал-Синнесе (Норвегия) (51 км)
Погода в Сархейме (Норвегия) (57 км)
Погода на Маяке Obrestad (Норвегия) (57 км)
Погода в Консмо-Хойланде (Норвегия) (57 км)
Погода на Лярватне (Норвегия) (64 км)
Погода в Ставангер аэропорту (Норвегия) (65 км)
Погода на Маяке Lindesnes (Норвегия) (67 км)
Погода в Ставангере (Норвегия) (67 км)

Пояснения к столбцам:

Ветер - указаны скорость ветра в м/с - средняя за 10 мин, порывы в срок и между сроками (в фигурных скобках) и направление, откуда дует ветер: С - северный, СВ - северо-восточный, В - восточный, ЮВ - юго-восточный, Ю - южный, ЮЗ - юго-западный, З - западный, СЗ - северо-западный.
Видимость - горизонтальная дальность видимости в метрах или километрах. При видимости от 1 до 10 км при отсутствии осадков обычно наблюдается дымка, при ухудшении видимости до 1 км и менее - туман. В сухую погоду видимость может ухудшаться дымом, пылью или мглою.
Явления - указаны атмосферные явления, наблюдавшиеся в срок или в последний час перед сроком; фигурными скобками обозначены явления, наблюдавшиеся между сроками (за 1-3 часа до срока); квадратными скобками обозначены град или гололедные отложения с указанием их диаметра в мм.
Облачность - указаны через наклонную черту общая и нижняя облачность в баллах и высота нижней границы облаков в метрах; квадратными скобками обозначены формы облаков: Ci - перистые, Cs - перисто-слоистые, Cc - перисто-кучевые, Ac - высококучевые, As - высокослоистые, Sc - слоисто-кучевые, Ns - слоисто-дождевые, Cu - кучевые, Cb - кучево-дождевые. Подробнее классификацию облаков см. в Атласе облаков (PDF).
T - Температура воздуха - температура, измеренная на высоте 2 м над землей.
Td - Температура точки росы - температура, при понижении до которой содержащийся в воздухе водяной пар достигнет насыщения.
f - Относительная влажность воздуха - влажноcть воздуха, измеренная на высоте 2 м над землей.
Te - Эффективная температура - температура, которую ощущает одетый по сезону человек в тени. Характеристика душности погоды. При расчете учитывается влияние влажности воздуха и скорости ветра на теплоощущения человека.
Tes - Эффективная температура на солнце - температура, которую ощущает человек, с поправкой на солнечный нагрев. Характеристика знойности погоды. Зависит от высоты солнца над горизонтом, облачности и скорости ветра. Ночью, в пасмурную погоду, а также при ветре 12 м/с и более поправка равна нулю.
P - Атмосферное давление - приведенное к уровню моря атмосферное давление.
Po - Атмосферное давление - измеренное на уровне метеостанции атмосферное давление.
Tmin - Минимальная температура - минимум температуры воздуха на высоте 2 м над землей.
Tmax - Максимальная температура - максимум температуры воздуха на высоте 2 м над землей.
R - Количество осадков - Количество выпавших осадков за период времени, мм. При наведении курсора мыши на число - период времени, за который выпало указанное количество осадков.
R24 - Количество осадков - Количество выпавших осадков за 24 часа, мм.
S - Снежный покров - Высота снежного покрова, см. При наведении курсора мыши на число - состояние снежного покрова и степень покрытия местности в баллах.